Tracking 32136 objects as of 12-Nov-2025
HD Live streaming from Space Station
objects crossing your sky now

GEOS 2

Track GEOS 2 now!
GEOS 2 is classified as:


NORAD ID: 10981
Int'l Code: 1978-071A
Perigee: 36,020.0 km
Apogee: 36,069.7 km
Inclination: 6.1 °
Period: 1,448.9 minutes
Semi major axis: 42415 km
RCS: 2.0304 m2 (large)
Launch date: July 14, 1978
Source: European Space Agency (ESA)
Launch site: AIR FORCE EASTERN TEST RANGE (AFETR)
Your satellite tracking list
Your tracking list is empty




NASA's NSSDC Master Catalog

Two Line Element Set (TLE):
1 10981U 78071A   25315.20473872 -.00000207  00000-0  00000-0 0  9991
2 10981   6.1151 288.5742 0005866 346.1334  18.6292  0.99382649171838
Source of the keplerian elements: AFSPC